Regional Weather Roundup
Issued by NWS

Home | Current Version | Previous Version | Text Only | Print | Product List | Glossary On
Versions: 1 2 3 4 5 6 7 8 9 10 11 12 13 14 15 16 17 18 19 20 21 22 23 24 25 26 27 28 29 30 31 32 33 34 35 36 37 38 39 40 41 42 43 44 45 46 47 48 49 50
000
ASUS43 KMKX 011700
RWRWI

WISCONSIN REGIONAL WEATHER ROUNDUP
NATIONAL WEATHER SERVICE MILWAUKEE/SULLIVAN WI
1200 PM CDT SUN MAY 01 2016

NOTE: "FAIR" INDICATES FEW OR NO CLOUDS BELOW 12,000 FEET WITH NO
SIGNIFICANT WEATHER AND/OR OBSTRUCTIONS TO VISIBILITY.

WIZ001-002-006>008-014>016-023>028-011800-
NORTHWEST WISCONSIN

CITY           SKY/WX    TMP DP  RH WIND       PRES   REMARKS
SUPERIOR ARPT  SUNNY     46  36  67 E17G23    30.26F
ASHLAND        CLOUDY    46  38  73 NE15      30.24F
HAYWARD        SUNNY     50  36  58 N14G23    30.18F
SIREN          SUNNY     52  35  52 NE9G17    30.19F
CUMBERLAND     SUNNY     52  36  54 N12       30.16S
RICE LAKE      SUNNY     54  37  52 NW12      30.16F
CHETEK         SUNNY     56  35  45 NE5       30.13F
LADYSMITH      SUNNY     56  37  48 NE12      30.15F
EAU CLAIRE     NOT AVBL
MENOMONIE      SUNNY     58  34  39 N13       30.12F
NEW RICHMOND   SUNNY     55  34  46 NE6G17    30.15F
OSCEOLA        SUNNY     54  37  52 NE9       30.19S
$$

WIZ003>005-009-010-017-018-011800-
NORTH CENTRAL WISCONSIN

CITY           SKY/WX    TMP DP  RH WIND       PRES   REMARKS
MANITOWISH WTR SUNNY     53  32  45 NE9G16    30.15F
ARBOR VITAE    SUNNY     57  31  37 E9G16     30.13F
WOODRUFF       SUNNY     57  31  37 E9G16     30.13F
RHINELANDER    SUNNY     58  30  34 E12       30.12F
EAGLE RIVER    SUNNY     56  26  31 E15G22    30.13F
LAND O LAKES   SUNNY     56  29  35 NE9G17    30.15F
PHILLIPS       SUNNY     54  32  43 NE9G16    30.13F
TOMAHAWK       SUNNY     56  31  37 E6        30.13S
MEDFORD        SUNNY     55  31  40 NE10G21   30.10F
MERRILL        SUNNY     58  32  37 E12G17    30.11F
$$

WIZ029-030-035-036-043>047-011800-
CENTRAL WISCONSIN

CITY           SKY/WX    TMP DP  RH WIND       PRES   REMARKS
WAUSAU         CLOUDY    58  28  32 E12G18    30.08F
MOSINEE        PTSUNNY   52  28  40 NE8       30.11F
MARSHFIELD     MOSUNNY   55  30  38 E14       30.09F
STEVENS POINT  CLOUDY    50  33  52 NE8G16    30.11F
WAUPACA        CLOUDY    54  39  57 N8        30.10S
WAUTOMA        CLOUDY    52  41  66 E8        30.09S
WISC RAPIDS    CLOUDY    54  35  48 E8        30.11F
CAMP DOUGLAS   NOT AVBL
$$

WIZ011>013-019>022-031-037>040-048>050-011800-
NORTHEAST WISCONSIN

CITY           SKY/WX    TMP DP  RH WIND       PRES   REMARKS
ANTIGO         CLOUDY    56  31  39 E3        30.10F
SHAWANO        CLOUDY    56  37  47 E8        30.11F
OCONTO         PTSUNNY   52  36  54 NE9       30.13R
STURGEON BAY   CLOUDY    52  37  58 NE7       30.14F
GREEN BAY      CLOUDY    50  39  66 NE16G23   30.11S
MANITOWOC      NOT AVBL
APPLETON       PTSUNNY   50  36  57 NE12G18   30.08S
CLINTONVILLE   CLOUDY    52  34  50 NE8       30.11S
OSHKOSH        CLOUDY    50  41  71 NE14      30.08S
$$

WIZ032>034-041-042-053>061-011800-
SOUTHWEST WISCONSIN

CITY           SKY/WX    TMP DP  RH WIND       PRES   REMARKS
LA CROSSE      MOSUNNY   55  37  50 NE7G17    30.08F
SPARTA         CLOUDY    52  38  59 NE14      30.09F
VIROQUA        CLOUDY    51  40  66 NE14      30.06S
BOSCOBEL       CLOUDY    52  39  61 NE6       30.06S
PRAIRIE DU CHI CLOUDY    51  37  59 NE10G18   30.05S
PLATTEVILLE    CLOUDY    49  43  80 NE14G21   30.03R
$$

WIZ056-057-062-063-064-067-068-011800-
SOUTH CENTRAL WISCONSIN

CITY           SKY/WX    TMP DP  RH WIND       PRES   REMARKS
REEDSBURG      CLOUDY    47  41  78 NE10      30.07S
BARABOO/DELLS  CLOUDY    47  41  78 E12       30.07S
LONE ROCK      NOT AVBL
MINERAL POINT  CLOUDY    50  43  76 NE13G21   30.04R
MADISON        CLOUDY    50  44  80 NE12      30.04F
MIDDLETON      CLOUDY    48  43  81 NE10      30.05F
WATERTOWN      CLOUDY    53  46  75 E10G16    30.04S
MONROE         CLOUDY    45  43  93 NE8G16    30.03R
JANESVILLE     CLOUDY    46  45  93 NE13G20   30.02S
$$

WIZ051-052-058>065-066-070>072-011800-
SOUTHEAST WISCONSIN

CITY           SKY/WX    TMP DP  RH WIND       PRES   REMARKS
MILWAUKEE      CLOUDY    47  39  74 NE14G23   30.05R
WAUKESHA       CLOUDY    48  37  66 NE15G25   30.05S
MILWAUKEE/TIMM CLOUDY    48  36  61 NE17G23   30.05S
RACINE         CLOUDY    45  38  76 N14       30.05S
BURLINGTON     CLOUDY    49  43  79 NE15      30.02F
KENOSHA        CLOUDY    46  42  86 NE13      30.03S
FOND DU LAC    CLOUDY    53  42  66 NE14      30.07S
SHEBOYGAN      PTSUNNY   50  39  66 NE17      30.08R
WEST BEND      CLOUDY    52  37  58 NE12G21   30.05S
JUNEAU         CLOUDY    50  42  75 NE12      30.07S
$$

LSZ147-162-011800-
LAKE SUPERIOR

STATION/POSITION TIME  TEMP    WIND        PRES    WAVE
                       AIR SEA DIR/SP/G            HT/PER
                 (UTC) (F)     (DEG/KT/KT) (MB)    (FT/S)
W MID LAKE BUOY  1550   38 37   40/ 12/ 14 1025.2S   3/ 5
DEVILS ISLAND    1600   39      60/  9/ 10 1025.7F
SAXON HARBOR     1640   39      30/ 12/ 13 1023.7S
$$

LMZ867-665-643>646-011800-
LAKE MICHIGAN

STATION/POSITION TIME  TEMP    WIND        PRES    WAVE
                       AIR SEA DIR/SP/G            HT/PER
                 (UTC) (F)     (DEG/KT/KT) (MB)    (FT/S)
CHAMBERS ISLAND  1600   44      10/ 10/ 13 1020.7R
N MID LAKE BUOY  1550   40 39   40/  8/ 10 1020.6R
NORTHPORT PIER   1600   43      70/ 13/ 15 1020.7R
ALGOMA LAKESHORE 1600           50/ 14/ 17   N/A
KEWAUNEE LAKESHO 1600   44      20/  9/ 14 1019.2R
SHEBOYGAN LAKESH 1600   42      10/ 17/ 19 1019.1F
PORT WASHINGTON  1600   48      40/ 16/ 22 1018.6
S MID LAKE BUOY  1550   42 40   40/ 14/ 16 1016.0F   3/ 5
KENOSHA   LAKESH 1600   43      20/ 20/ 22 1016.6S
$$

TC  - TEMPERATURE IN CELSIUS
VSB - VISIBILITY IN STATUTE MILES
WCI - WIND CHILL INDEX
HX  - HEAT INDEX





USA.gov is the U.S. government's official web portal to all federal, state and local government web resources and services.